Location: Hartman Creek State Park
(44.3257°N, 89.2134°W)
Time: 11:25:01
(UTC-05:00)

Terra - Visible Passes

Search period start: 02 August 2015 00:00
Search period end: 12 August 2015 00:00
Orbit: 701 x 703 km, 98.2° (Epoch: 02 August)

Date Brightness Start Highest point End Pass type
(mag) Time Alt. Az. Time Alt. Az. Time Alt. Az.
02 Aug 2.9 22:03:37 23° ESE 22:05:33 31° ENE 22:09:45 10° N visible
02 Aug 3.1 23:42:30 29° WSW 23:43:18 31° W 23:47:30 10° NNW visible
03 Aug 4.1 21:10:23 10° ENE 21:11:07 10° ENE 21:12:05 10° NE visible
03 Aug 1.7 22:46:57 50° SSE 22:48:08 78° ENE 22:52:55 10° N visible
04 Aug 4.2 00:25:50 12° W 00:26:35 12° W 00:28:19 10° WNW visible
04 Aug 3.2 21:51:23 18° E 21:53:25 24° ENE 21:57:16 10° NNE visible
04 Aug 2.6 23:30:17 38° WSW 23:30:59 40° W 23:35:29 10° NNW visible
05 Aug 2.0 22:34:44 44° SE 22:35:56 59° ENE 22:40:38 10° N visible
06 Aug 4.0 00:13:37 16° W 00:14:10 16° W 00:17:00 10° NW visible
06 Aug 3.5 21:39:10 14° E 21:41:17 19° ENE 21:44:42 10° NNE visible
06 Aug 2.2 23:18:04 49° SW 23:18:42 53° W 23:23:23 10° NNW visible
07 Aug 2.3 22:22:31 36° ESE 22:23:45 45° ENE 22:28:18 10° N visible
08 Aug 3.6 00:01:24 21° W 00:01:47 21° W 00:05:19 10° NW visible
08 Aug 3.8 21:26:58 11° E 21:29:11 15° ENE 21:31:59 10° NNE visible
08 Aug 1.8 23:05:51 63° SSW 23:06:27 71° WSW 23:11:13 10° NNW visible
09 Aug 2.7 22:10:18 29° E 22:11:35 35° ENE 22:15:55 10° N visible
09 Aug 3.3 23:49:11 27° W 23:49:25 27° W 23:53:26 10° NW visible
10 Aug 3.9 21:15:28 10° E 21:17:06 12° ENE 21:18:57 10° NE visible
10 Aug 1.6 22:53:38 70° SSE 22:54:12 88° ENE 22:59:00 10° NNW visible
11 Aug 4.4 00:32:32 10° W 00:32:46 10° W 00:33:21 10° WNW visible
11 Aug 3.0 21:58:06 24° E 21:59:26 27° ENE 22:03:28 10° N visible
11 Aug 2.9 23:36:59 35° W 23:37:06 35° W 23:41:27 10° NNW visible
